Tracking 25195 objects as of 20-Jan-2022
HD Live streaming from Space Station
objects crossing your sky now

STARLINK-1856

Track STARLINK-1856 now!
10-day predictions
STARLINK-1856 is classified as:


NORAD ID: 47143
Int'l Code: 2020-088X
Perigee: 552.9 km
Apogee: 555.9 km
Inclination: 53.1 °
Period: 95.6 minutes
Semi major axis: 6925 km
RCS: Unknown
Launch date: November 25, 2020
Source: United States (US)
Launch site: AIR FORCE EASTERN TEST RANGE (AFETR)
aabbcc
Your satellite tracking list
Your tracking list is empty




NASA's NSSDC Master Catalog

Two Line Element Set (TLE):
1 47143U 20088X   22019.29503589  .00000264  00000-0  36679-4 0  9999
2 47143  53.0542 232.0317 0002184  71.1859 288.9367 15.06387840 64324
Source of the keplerian elements: AFSPC